Location: Unspecified
(0.0000°N, 0.0000°E)
Time: 11:21:21
(UTC+00:00)

A-11 Canister half - Pass Details

Date: 04 August 2021
Orbit: 1515 x 1685 km, 47.2° (Epoch: 27 September)

Event Time Altitude Azimuth Distance (km) Brightness Sun altitude
Rises 11:19:08 0° 198° (SSW) 4,656 11.3 69.3°
Reaches altitude 10° 11:22:51 10° 185° (S) 3,675 10.9 69.8°
Maximum altitude 11:30:14 27° 131° (SE) 2,626 10.6 70.7°
Drops below altitude 10° 11:37:40 10° 78° (ENE) 3,727 11.3 71.5°
Sets 11:41:25 0° 66° (ENE) 4,733 11.7 71.8°
